Location: Behlen Observatory
(41.1709°N, 96.4467°W)
Time: 15:47:15
(UTC-05:00)

Envisat - Visible Passes

Search period start: 24 June 2018 00:00
Search period end: 04 July 2018 00:00
Orbit: 764 x 766 km, 98.2° (Epoch: 24 June)

Date Brightness Start Highest point End Pass type
(mag) Time Alt. Az. Time Alt. Az. Time Alt. Az.
25 Jun 6.0 22:19:29 10° W 22:20:23 10° W 22:21:18 10° WNW visible
26 Jun 5.2 21:39:10 10° SSW 21:43:15 24° W 21:47:23 10° NW visible
28 Jun 5.7 22:06:33 10° WSW 22:09:05 14° W 22:11:38 10° WNW visible
01 Jul 5.6 21:54:27 10° SW 21:57:48 18° W 22:01:11 10° NW visible
